IZ1UKX-13 Weather Reports


time (UTC)temp
C
wind
direction
speed
KPH
gust
KPH
rain 1hr
cm
rain 24hr
cm
rain mn
cm
humidity
%
barometer
mb
20260506220204 12 180 3.2 6.4 0.00 0.00 0.00 80 1024.5
20260506215705 12 180 3.2 3.2 0.00 0.97 0.00 81 1024.5
20260506215204 12 180 4.8 3.2 0.00 0.97 0.00 81 1024.5
20260506214705 12 90 3.2 3.2 0.00 0.97 0.00 82 1024.5
20260506214205 12 90 3.2 3.2 0.00 0.97 0.00 83 1024.5
20260506213704 12 113 0.0 0.0 0.00 0.97 0.00 83 1024.5
20260506213204 12 113 1.6 0.0 0.00 0.97 0.00 83 1024.5
20260506212704 12 113 1.6 3.2 0.00 0.97 0.00 83 1024.5
20260506212204 12 113 3.2 3.2 0.00 0.97 0.00 83 1024.5
20260506211704 12 113 3.2 3.2 0.00 0.97 0.00 83 1024.5
20260506211204 12 113 1.6 0.0 0.00 0.97 0.00 84 1024.5
20260506210704 12 113 1.6 3.2 0.00 0.97 0.00 83 1024.5
20260506210204 12 113 3.2 3.2 0.00 0.97 0.00 83 1024.5
20260506205704 12 113 1.6 3.2 0.00 0.97 0.00 83 1024.5
20260506205204 12 113 1.6 0.0 0.00 0.97 0.00 83 1024.5
20260506204704 12 113 3.2 6.4 0.00 0.97 0.00 83 1024.5
20260506204204 12 113 3.2 3.2 0.00 0.97 0.00 83 1024.5
20260506203704 12 113 1.6 3.2 0.00 0.97 0.00 83 1024.5
20260506203204 12 113 3.2 3.2 0.00 0.97 0.00 83 1024.5
20260506202704 12 113 1.6 3.2 0.00 0.97 0.00 83 1024.5
20260506202205 12 113 3.2 3.2 0.00 0.97 0.00 82 1024.5
20260506201704 12 158 3.2 3.2 0.00 0.97 0.00 82 1024.5
20260506201204 12 158 3.2 3.2 0.00 0.97 0.00 82 1024.5
20260506200704 12 158 3.2 3.2 0.00 0.97 0.00 81 1024.5
20260506200204 12 158 3.2 3.2 0.00 0.97 0.00 81 1024.5
20260506195704 12 158 3.2 6.4 0.00 0.97 0.00 81 1024.5
20260506195204 12 158 4.8 6.4 0.00 0.97 0.00 81 1024.5
20260506194704 12 158 3.2 3.2 0.00 0.97 0.00 81 1024.5
20260506194204 12 158 3.2 3.2 0.00 0.97 0.00 81 1024.5
20260506193704 12 135 3.2 3.2 0.00 0.97 0.00 81 1024.5
20260506193204 12 135 3.2 6.4 0.00 0.97 0.00 81 1024.5
20260506192704 12 135 4.8 11.3 0.00 0.97 0.00 81 1024.5
20260506192204 12 90 4.8 11.3 0.00 0.97 0.00 80 1024.5
20260506191704 12 158 3.2 3.2 0.00 0.97 0.00 81 1024.5
20260506191204 12 158 1.6 3.2 0.00 0.97 0.00 81 1024.5
20260506190704 12 158 4.8 6.4 0.00 0.97 0.00 81 1024.5
20260506190204 12 158 3.2 3.2 0.00 0.97 0.00 81 1024.5
20260506185705 12 180 3.2 11.3 0.00 0.97 0.00 81 1024.5
20260506185204 12 158 3.2 6.4 0.00 0.97 0.00 80 1024.5
20260506184705 12 68 3.2 6.4 0.00 0.97 0.00 81 1024.5
20260506184204 13 158 3.2 6.4 0.00 0.97 0.00 80 1024.5
20260506183704 13 158 4.8 11.3 0.00 0.97 0.00 80 1024.5
20260506183204 13 180 1.6 0.0 0.00 0.97 0.00 80 1024.5
20260506182705 13 113 6.4 6.4 0.00 0.97 0.00 79 1024.5
20260506182205 13 203 3.2 6.4 0.00 0.97 0.00 80 1024.5
20260506181704 13 158 4.8 6.4 0.00 0.97 0.00 79 1024.5
20260506181204 13 158 1.6 0.0 0.00 0.97 0.00 79 1024.5
20260506180704 13 158 3.2 3.2 0.00 0.97 0.00 79 1024.5
20260506180204 13 68 4.8 6.4 0.00 0.97 0.00 79 1024.5
20260506175704 13 113 1.6 3.2 0.00 0.97 0.00 79 1024.0
20260506175204 13 113 3.2 6.4 0.00 0.97 0.00 78 1024.0
20260506174705 13 158 1.6 6.4 0.00 0.97 0.00 78 1024.0
20260506174204 13 158 3.2 3.2 0.00 0.97 0.00 77 1024.0
20260506173704 13 158 3.2 6.4 0.00 0.97 0.00 77 1024.0
20260506173204 13 158 3.2 6.4 0.00 0.97 0.00 77 1024.0
20260506172704 13 158 3.2 3.2 0.00 0.97 0.00 76 1024.0
20260506172204 14 113 3.2 6.4 0.00 0.97 0.00 76 1024.0
20260506171704 13 113 1.6 3.2 0.00 0.97 0.00 75 1024.0
20260506171205 14 135 3.2 3.2 0.00 0.97 0.00 74 1024.0
20260506170704 14 135 3.2 3.2 0.00 0.97 0.00 74 1024.0
20260506170204 14 135 3.2 6.4 0.00 0.97 0.00 73 1024.0
20260506165704 14 113 3.2 6.4 0.00 0.97 0.00 73 1024.0
20260506165205 14 113 3.2 3.2 0.00 0.97 0.00 74 1024.0
20260506164704 14 113 1.6 3.2 0.00 0.97 0.00 74 1024.0
20260506164204 14 90 3.2 3.2 0.00 0.97 0.00 73 1024.0
20260506163704 14 113 3.2 3.2 0.00 0.97 0.00 72 1024.0
20260506163204 15 113 0.0 0.0 0.00 0.97 0.00 72 1024.0
20260506162705 15 135 4.8 6.4 0.00 0.97 0.00 71 1024.0
20260506162204 15 113 4.8 6.4 0.00 0.97 0.00 70 1024.0
20260506161704 15 135 1.6 0.0 0.00 0.97 0.00 73 1024.0
20260506161204 15 135 3.2 3.2 0.00 0.97 0.00 72 1024.0
20260506160704 15 135 0.0 0.0 0.00 0.97 0.00 71 1024.0
20260506160205 16 158 4.8 11.3 0.00 0.97 0.00 70 1023.6
20260506155204 16 90 1.6 3.2 0.00 0.97 0.00 71 1023.6
20260506154704 16 158 1.6 3.2 0.00 0.97 0.00 71 1023.6
20260506154204 16 135 4.8 3.2 0.00 0.97 0.00 70 1023.6
20260506153705 16 90 3.2 3.2 0.00 0.97 0.00 70 1023.6
20260506153205 16 248 3.2 3.2 0.00 0.97 0.00 69 1023.6
20260506152704 16 113 4.8 14.5 0.00 0.97 0.00 69 1023.6
20260506152204 16 135 6.4 11.3 0.00 0.97 0.00 69 1023.6
20260506151704 16 135 4.8 3.2 0.00 0.97 0.00 69 1023.6
20260506151205 16 90 4.8 6.4 0.00 0.97 0.00 71 1023.6
20260506150704 16 158 6.4 6.4 0.00 0.97 0.00 68 1023.6
20260506150204 17 338 3.2 0.0 0.00 0.97 0.00 69 1023.6
20260506145704 17 158 4.8 3.2 0.00 0.97 0.00 70 1023.6
20260506145205 17 158 1.6 6.4 0.00 0.97 0.00 68 1023.6
20260506144705 17 158 1.6 0.0 0.00 0.97 0.00 68 1023.6
20260506144204 16 158 4.8 6.4 0.00 0.97 0.00 69 1023.6
20260506143704 17 135 4.8 11.3 0.00 0.97 0.00 68 1023.6
20260506143204 16 158 4.8 6.4 0.00 0.97 0.00 68 1023.6
20260506142704 17 113 3.2 6.4 0.00 0.97 0.00 65 1023.6
20260506142204 18 180 4.8 11.3 0.00 0.97 0.00 63 1023.2
20260506141704 18 135 1.6 0.0 0.00 0.97 0.00 66 1023.2
20260506141204 18 158 4.8 11.3 0.00 0.97 0.00 66 1023.2
20260506141020 18 158 4.8 11.3 0.00 0.97 0.00 65 1023.2
20260506140907 18 135 4.8 6.4 0.00 0.97 0.00 66 1023.2
20260506140408 18 113 4.8 11.3 0.00 0.97 0.00 66 1023.2
20260506135907 18 158 4.8 11.3 0.00 0.97 0.00 66 1023.2
20260506135408 18 180 3.2 6.4 0.00 0.97 0.00 67 1023.2
20260506134908 18 135 4.8 6.4 0.00 0.97 0.00 65 1023.2
20260506134407 18 90 3.2 3.2 0.00 0.97 0.00 65 1023.2
20260506133908 18 90 8.0 3.2 0.00 0.97 0.00 65 1023.2
20260506133408 18 180 6.4 11.3 0.00 0.97 0.00 66 1023.2
20260506132907 18 68 4.8 6.4 0.00 0.97 0.00 68 1023.2
20260506132408 18 90 4.8 6.4 0.00 0.97 0.00 68 1023.2
20260506131908 18 203 4.8 6.4 0.00 0.97 0.00 68 1023.2
20260506131408 17 113 3.2 6.4 0.00 0.97 0.00 73 1023.6
20260506130908 17 158 3.2 6.4 0.00 0.97 0.00 74 1023.6
20260506130408 17 158 4.8 6.4 0.00 0.97 0.00 74 1023.6
20260506125907 17 135 3.2 6.4 0.00 0.97 0.00 74 1023.6
20260506125408 17 113 3.2 6.4 0.00 0.97 0.00 74 1023.6
20260506124907 17 135 4.8 11.3 0.00 0.97 0.00 72 1023.2
20260506124407 18 113 3.2 3.2 0.00 0.97 0.00 70 1023.2
20260506123908 18 158 4.8 6.4 0.00 0.97 0.00 69 1023.2
20260506123408 18 180 3.2 3.2 0.00 0.97 0.00 69 1023.2
20260506122908 18 180 3.2 6.4 0.00 0.97 0.00 71 1023.2
20260506122408 18 158 6.4 11.3 0.00 0.97 0.00 71 1023.2
20260506121908 18 270 4.8 3.2 0.00 0.97 0.00 75 1023.2
20260506121408 17 158 4.8 6.4 0.00 0.97 0.00 76 1023.6
20260506120908 16 248 8.0 14.5 0.00 0.97 0.00 76 1023.6
20260506120408 16 158 1.6 3.2 0.00 0.97 0.00 78 1023.6
20260506115907 16 135 3.2 3.2 0.00 0.97 0.00 78 1023.6
20260506115408 16 90 3.2 3.2 0.00 0.97 0.00 76 1023.6
20260506114907 17 158 3.2 6.4 0.00 0.97 0.00 75 1023.6
20260506114407 18 158 4.8 6.4 0.00 0.97 0.00 71 1023.2
20260506113908 18 180 3.2 3.2 0.00 0.97 0.00 69 1023.2
20260506113408 18 158 3.2 3.2 0.00 0.97 0.00 71 1023.2
20260506112907 17 203 1.6 0.0 0.00 0.97 0.00 72 1023.6
20260506112407 17 90 6.4 6.4 0.00 0.97 0.00 70 1023.6
20260506111908 17 135 3.2 3.2 0.00 0.97 0.00 72 1023.2
20260506111408 18 158 3.2 3.2 0.00 0.97 0.00 70 1023.2
20260506110907 18 158 3.2 3.2 0.00 0.97 0.00 68 1023.2
20260506110408 18 158 3.2 6.4 0.00 0.97 0.00 69 1023.2
20260506105908 18 248 4.8 3.2 0.00 0.97 0.00 70 1023.2
20260506105408 18 158 3.2 3.2 0.00 0.97 0.00 70 1023.2
20260506104908 17 158 8.0 11.3 0.00 0.97 0.00 72 1023.2
20260506104408 18 180 3.2 3.2 0.00 0.97 0.00 71 1023.2
20260506103907 17 180 3.2 3.2 0.00 0.97 0.00 75 1023.2
20260506103407 17 158 3.2 3.2 0.00 0.97 0.00 76 1023.6
20260506102908 17 180 4.8 3.2 0.00 0.97 0.00 75 1023.6
20260506102408 17 158 4.8 3.2 0.00 0.97 0.00 76 1023.6
20260506101907 17 135 3.2 3.2 0.00 0.97 0.00 76 1023.6
20260506101408 17 158 3.2 6.4 0.00 0.97 0.00 79 1023.6
20260506101143 16 180 6.4 6.4 0.00 0.97 0.00 80 1023.6
20260506100743 16 158 4.8 6.4 0.00 0.97 0.00 80 1023.6
20260506100242 16 180 3.2 6.4 0.00 0.97 0.00 82 1023.6
20260506095742 16 113 3.2 3.2 0.00 0.97 0.00 82 1023.6
20260506095243 16 203 3.2 3.2 0.00 0.97 0.00 82 1023.6
20260506094742 16 90 3.2 3.2 0.00 0.97 0.00 83 1023.6
20260506094242 16 68 3.2 3.2 0.00 0.97 0.00 82 1023.6
20260506093742 16 135 3.2 11.3 0.00 0.97 0.00 82 1023.6
20260506093243 16 158 4.8 6.4 0.00 0.97 0.00 82 1023.6
20260506092743 16 158 3.2 3.2 0.00 0.97 0.00 83 1023.6
20260506092243 16 113 3.2 11.3 0.00 0.97 0.00 85 1023.6
20260506091742 15 225 6.4 6.4 0.00 0.97 0.00 87 1024.0
20260506091242 15 203 1.6 0.0 0.00 0.97 0.00 88 1024.0
20260506090742 15 113 4.8 3.2 0.00 0.97 0.00 88 1024.0
20260506090243 15 45 6.4 6.4 0.00 0.97 0.00 87 1024.0
20260506085742 15 158 4.8 6.4 0.00 0.97 0.00 86 1024.0
20260506085243 15 158 6.4 3.2 0.00 0.97 0.00 89 1024.0
20260506084742 14 113 3.2 6.4 0.00 0.97 0.00 90 1024.0
20260506084243 14 135 3.2 6.4 0.00 0.97 0.00 90 1024.0
20260506083742 14 180 6.4 6.4 0.00 0.97 0.00 91 1024.0
20260506083242 14 113 8.0 11.3 0.00 0.97 0.00 92 1024.0
20260506082742 14 135 4.8 11.3 0.00 0.97 0.00 93 1024.0
20260506082242 14 135 3.2 6.4 0.00 0.97 0.00 93 1024.0
20260506081743 14 135 6.4 11.3 0.00 0.97 0.00 93 1024.0
20260506081242 13 270 8.0 11.3 0.00 0.97 0.00 94 1024.0
20260506080742 13 158 6.4 6.4 0.00 0.97 0.00 94 1024.0
20260506080242 13 90 4.8 3.2 0.00 0.97 0.00 95 1024.0
20260506073242 13 180 4.8 6.4 0.43 0.97 0.00 95 1024.0
20260506072743 13 293 3.2 6.4 0.43 0.97 0.00 96 1024.0
20260506072242 13 158 6.4 14.5 0.43 0.97 0.00 95 1024.5
20260506071742 12 158 1.6 0.0 0.36 0.89 0.00 95 1024.5
20260506071242 12 45 4.8 11.3 0.33 0.84 0.00 93 1024.5
20260506070742 12 135 1.6 0.0 0.28 0.79 0.00 92 1024.5
20260506070243 13 135 1.6 0.0 0.20 0.71 0.00 94 1024.0
20260506062242 13 158 3.2 6.4 0.00 0.00 0.00 93 1024.0
20260506061742 13 158 1.6 3.2 0.00 0.00 0.00 93 1024.0
20260506061217 13 158 0.0 0.0 0.00 1.96 0.00 94 1024.0
20260506060718 13 158 0.0 0.0 0.00 1.96 0.00 94 1024.0
20260506060217 13 180 1.6 0.0 0.00 1.96 0.00 95 1024.0
20260506051217 11 113 0.0 0.0 0.05 1.96 0.00 97 1024.9
20260506050717 11 113 0.0 0.0 0.00 1.93 0.00 96 1024.9
20260506050218 11 90 0.0 3.2 0.00 1.93 0.00 97 1024.9
20260506044718 11 90 3.2 3.2 0.13 1.93 0.00 97 1024.9
20260506044217 11 90 0.0 0.0 0.13 1.93 0.00 97 1024.9
20260506043717 11 90 0.0 0.0 0.13 1.93 0.00 96 1024.9
20260506043217 11 90 1.6 3.2 0.13 1.93 0.00 96 1024.9
20260506042718 11 90 3.2 3.2 0.13 1.93 0.00 96 1024.9
20260506042217 11 90 0.0 3.2 0.08 1.88 0.00 96 1024.9
20260506041717 10 90 1.6 0.0 0.05 1.83 0.00 96 1024.9
20260506041217 10 90 6.4 6.4 0.05 1.83 0.00 96 1024.9
20260506040717 10 113 3.2 3.2 0.00 1.80 0.00 96 1024.9
20260506040217 10 135 0.0 0.0 0.00 1.80 0.00 96 1024.9
20260506035717 10 135 3.2 6.4 0.00 1.80 0.00 96 1024.9
20260506035217 10 158 0.0 0.0 0.00 1.80 0.00 96 1024.9
20260506034718 10 158 0.0 0.0 0.00 1.80 0.00 96 1024.9
20260506034217 11 158 1.6 3.2 0.00 1.80 0.00 96 1024.9
20260506033717 11 158 1.6 3.2 0.00 1.80 0.00 95 1024.9
20260506033217 11 158 1.6 3.2 0.00 1.80 0.00 96 1024.9
20260506032717 11 113 1.6 0.0 0.00 1.80 0.00 96 1024.9
20260506032217 11 158 3.2 3.2 0.00 1.80 0.00 96 1024.9
20260506031718 11 158 1.6 0.0 0.00 1.80 0.00 97 1024.9
20260506031218 11 158 0.0 0.0 0.00 1.80 0.00 97 1024.9
20260506030717 11 158 0.0 0.0 0.00 1.80 0.00 97 1024.9
20260506030217 11 158 0.0 0.0 0.00 1.80 0.00 97 1024.5
20260506025717 11 158 0.0 0.0 0.23 1.80 0.00 97 1024.5
20260506025217 11 158 0.0 0.0 0.20 1.75 0.00 97 1024.9
20260506024717 11 158 0.0 0.0 0.20 1.75 0.00 97 1024.9
20260506024218 11 158 0.0 0.0 0.20 1.75 0.00 97 1024.9
20260506023717 11 158 0.0 0.0 0.20 1.75 0.00 97 1024.9
20260506023217 11 158 0.0 0.0 0.20 1.75 0.00 97 1024.5
20260506022717 11 158 0.0 0.0 0.20 1.75 0.00 97 1024.5
20260506022217 11 158 0.0 0.0 0.15 1.73 0.00 97 1024.5
20260506021717 11 158 0.0 0.0 0.13 1.68 0.00 97 1024.5
20260506021218 11 158 0.0 0.0 0.13 1.68 0.00 97 1024.5
20260506020717 11 158 0.0 0.0 0.08 1.65 0.00 97 1024.5
20260506020218 11 158 0.0 0.0 0.00 1.55 0.00 97 1024.5
20260506015717 11 158 0.0 0.0 1.12 1.52 0.00 97 1024.5
20260506015217 11 158 0.0 0.0 1.04 1.45 0.00 97 1024.5
20260506014718 11 158 0.0 0.0 0.97 1.37 0.00 97 1024.5
20260506014217 11 158 0.0 0.0 0.76 1.17 0.00 97 1024.5
20260506013717 11 158 1.6 0.0 0.64 1.04 0.00 97 1024.5
20260506013218 11 158 0.0 0.0 0.48 0.89 0.00 97 1024.5
20260506012717 11 158 1.6 3.2 0.48 0.89 0.00 97 1024.5
20260506012217 11 158 0.0 0.0 0.43 0.84 0.00 97 1024.5
20260506011717 11 158 0.0 0.0 0.41 0.79 0.00 97 1024.5
20260506011217 11 158 0.0 0.0 0.23 0.64 0.00 97 1024.5
20260506010718 11 158 0.0 0.0 0.13 0.51 0.00 97 1024.5
20260506010217 11 158 0.0 0.0 0.05 0.43 0.00 96 1024.5
20260506005717 11 158 0.0 0.0 0.15 0.33 0.00 96 1024.5
20260506005217 11 158 0.0 0.0 0.13 0.28 0.00 96 1024.5
20260506004717 11 158 0.0 0.0 0.08 0.23 0.00 96 1024.5
20260506004218 11 158 0.0 0.0 0.00 0.15 0.00 96 1024.5
20260506003717 11 158 0.0 0.0 0.00 0.15 0.00 96 1024.5
20260506003217 11 158 0.0 0.0 0.00 0.15 0.00 96 1024.5
20260506002717 11 158 0.0 0.0 0.00 0.15 0.00 96 1024.5
20260506002217 11 158 0.0 0.0 0.00 0.15 0.00 96 1024.5
20260506001717 11 158 0.0 0.0 0.00 0.15 0.00 96 1024.5
20260506001217 11 158 0.0 0.0 0.00 0.15 0.00 95 1024.5
20260506000717 11 158 0.0 0.0 0.00 0.15 0.00 96 1024.5
20260506000219 11 158 0.0 0.0 0.00 0.15 0.00 95 1024.5
20260505235717 11 158 0.0 0.0 0.08 0.15 0.00 95 1024.5
20260505235217 11 158 0.0 0.0 0.08 0.15 0.00 95 1024.5
20260505234717 11 158 0.0 0.0 0.08 0.15 0.00 95 1024.5
20260505234217 11 158 0.0 0.0 0.08 0.15 0.00 95 1024.5
20260505233717 11 158 0.0 0.0 0.08 0.15 0.00 95 1024.5
20260505233217 11 158 0.0 0.0 0.05 0.13 0.00 95 1024.5
20260505232717 11 158 0.0 0.0 0.05 0.13 0.00 95 1024.5
20260505232217 11 158 0.0 0.0 0.00 0.08 0.00 95 1024.5
20260505231717 11 158 0.0 0.0 0.00 0.08 0.00 95 1024.5
20260505231218 11 158 0.0 0.0 0.00 0.08 0.00 95 1024.5
20260505230717 11 158 0.0 0.0 0.00 0.08 0.00 95 1024.5
20260505230217 11 158 0.0 0.0 0.00 0.08 0.00 95 1024.5
20260505225717 11 158 0.0 0.0 0.08 0.08 0.00 95 1024.5
20260505225217 11 158 0.0 0.0 0.05 0.05 0.00 94 1024.5
20260505224717 11 158 0.0 0.0 0.05 0.05 0.00 94 1024.5
20260505224217 11 158 0.0 0.0 0.05 0.05 0.00 94 1024.5
20260505223717 11 158 0.0 0.0 0.00 0.00 0.00 94 1024.5
20260505223217 11 158 0.0 0.0 0.00 0.00 0.00 94 1024.5
20260505222717 11 158 0.0 0.0 0.00 0.00 0.00 94 1024.5
20260505222217 11 158 0.0 0.0 0.00 0.00 0.00 93 1024.5
20260505221717 11 158 0.0 0.0 0.00 0.00 0.00 94 1024.5
20260505221217 11 158 0.0 0.0 0.00 0.00 0.00 93 1024.5
20260505220717 11 158 0.0 0.0 0.00 0.00 0.00 93 1024.5